[Iaude] MPEC A11: 2024 AC [a=1.22,e=0.26,i=3.9,H=25.5]

mpec at marsden.cfa.harvard.edu mpec at marsden.cfa.harvard.edu
Mon Jan 1 21:16:38 EST 2024


M.P.E.C. 2024-A11                               Issued 2024 January 2, 02:13 UT

     The Minor Planet Electronic Circulars contain information on unusual
         minor planets, routine data on comets and natural satellites,
         and occasional editorial announcements.  They are published
    on behalf of Division F of the International Astronomical Union by the
          Minor Planet Center, Smithsonian Astrophysical Observatory,
                          Cambridge, MA 02138, U.S.A.
			  
             Prepared using the Tamkin Foundation Computer Network

                              MPC at CFA.HARVARD.EDU
            URL https://www.minorplanetcenter.net/    ISSN 1523-6714

                                    2024 AC                                     


Observations:
     K24A00C  C2023 12 05.51994606 24 32.476+35 49 42.37         23.32GVEA011F52
     K24A00C  C2023 12 05.52706606 24 32.840+35 49 41.36         22.69GVEA011F52
     K24A00C  C2023 12 05.54199706 24 33.568+35 49 38.34         22.28GVEA011F52
     K24A00C  C2023 12 05.55297506 24 34.091+35 49 36.02         22.50GVEA011F52
     K24A00C* C2024 01 01.52534508 03 04.555+16 22 42.46         18.27oVEA011T05
     K24A00C  C2024 01 01.52851008 03 06.650+16 21 57.74         18.23oVEA011T05
     K24A00C  C2024 01 01.55628908 03 25.798+16 15 20.45         18.44oVEA011T05
     K24A00C  C2024 01 01.56603008 03 32.554+16 13 00.84         18.82oVEA011T05
     K24A00C KC2024 01 01.77410408 06 26.09 +15 21 01.6          17.9 GVEA011900
     K24A00C KC2024 01 01.78882008 06 37.23 +15 17 16.4          18.3 GVEA011900
     K24A00C KC2024 01 01.85735808 08 04.03 +14 58 50.6          18.4 GVEA011104
     K24A00C KC2024 01 01.86025608 08 06.40 +14 58 07.3          18.3 GVEA011104
     K24A00C KC2024 01 01.86315208 08 08.78 +14 57 23.8          17.9 GVEA011104
     K24A00C KC2024 01 01.89370408 08 32.73 +14 49 39.6          18.2 GVEA011L01
     K24A00C KC2024 01 01.89519308 08 33.90 +14 49 17.4          18.3 GVEA011L01
     K24A00C KC2024 01 01.89668308 08 35.11 +14 48 55.3          18.5 GVEA011L01
     K24A00C KC2024 01 01.89816808 08 36.30 +14 48 32.7          18.6 GVEA011L01
     K24A00C KC2024 01 01.97081708 09 35.41 +14 29 46.9                VEA011204
     K24A00C KC2024 01 01.97591508 09 39.46 +14 28 27.2                VEA011204
     K24A00C KC2024 01 01.98022808 09 41.53 +14 27 21.3          18.0 GXEA011595
     K24A00C KC2024 01 01.98101008 09 43.51 +14 27 07.3          18.4 GVEA011204
     K24A00C KC2024 01 01.98454608 09 44.93 +14 26 13.2          18.1 GXEA011595
     K24A00C KC2024 01 01.98886208 09 48.34 +14 25 05.6          18.4 GXEA011595

Observer details:
104 San Marcello Pistoiese.  Observers P. Bacci, M. Maestripieri.  Measurers
    P. Bacci, L. Tesi, G. Fagioli.  0.60-m F4 Reflector + CCD.
204 Schiaparelli Observatory.  Observers L. Buzzi, G. Galli.  0.84-m f/3.5
    reflector + CCD.
595 Farra d'Isonzo.  Observer E. Pettarin.  0.61-m f/4.5 reflector + CCD.
900 Moriyama.  Observer Y. Ikari.  0.26-m f/7.0 reflector + CCD.
F52 Pan-STARRS 2, Haleakala.  Observers J. Herman, T. Lowe, P. Minguez, A.
    Schultz, I. Smith.  Measurers K. Chambers, T. de Boer, J. Fairlamb, H.
    Gao, M. Huber, C.-C. Lin, E. Magnier, Y. Ramanjooloo, R. Wainscoat, R.
    Weryk.  1.8-m Ritchey-Chretien + CCD.
L01 Visnjan Observatory, Tican.  Observer K. Korlevic.  1.0-m f/2.9 reflector
    + CCD.
T05 ATLAS-HKO, Haleakala.  Observers L. Denneau, R. Siverd, J. Tonry, H.
    Weiland.  Measurers L. Denneau, N. Erasmus, A. Fitzsimmons, A. Lawrence,
    J. Robinson, R. Siverd, J. Tonry, H. Weiland.  0.5-m Reflector + CCD.

Orbital elements:
2024 AC                                                  Earth MOID = 0.0096 AU
Epoch 2023 Sept. 13.0 TT = JDT 2460200.5                Veres                   
M 242.03644              (2000.0)            P               Q                  
n   0.73359343     Peri.  241.30608     -0.94059334     -0.33295535             
a   1.2175845      Node   279.18020     +0.33027263     -0.85175442             
e   0.2555736      Incl.    3.86369     +0.07876642     -0.40454312             
P   1.34           H   25.57          G   0.15           U   7                  
Residuals in seconds of arc
231205 F52  0.1+  0.0     240101 900  0.0   0.1-    240101 L01  0.3-  0.4+
231205 F52  0.2+  0.2+    240101 900  0.2-  0.4-    240101 204  0.3+  0.2-
231205 F52  0.1-  0.1-    240101 104  0.2+  0.1-    240101 204  0.3+  0.2-
231205 F52  0.5-  0.2-    240101 104  0.1+  0.0     240101 595  0.2+  0.2+
240101 T05  0.3+  0.1+    240101 104  0.1+  0.1-    240101 204  0.4+  0.3-
240101 T05  0.6-  0.3+    240101 L01  0.1-  0.4-    240101 595  0.0   0.0
240101 T05  0.1+  0.4-    240101 L01  0.4-  0.0     240101 595  0.0   0.3+
240101 T05  0.2-  0.3+    240101 L01  0.3-  0.5+

Ephemeris:
2024 AC                  a,e,i = 1.22, 0.26, 4                   q = 0.9064
Date    TT    R. A. (2000) Decl.     Delta      r    Elong.  Phase     V
2023 12 03    06 21 14.7 +35 53 06   0.1528  1.1241   152.9    23.5    22.9
...
2023 12 18    06 44 36.9 +34 04 59   0.08272 1.0632   162.3    16.3    21.2
...
2023 12 26    07 10 11.0 +29 34 08   0.05000 1.0322   166.3    13.0    19.9
...
2024 01 01    07 56 22.1 +18 18 11   0.02804 1.0100   162.0    17.5    18.7
2024 01 02    08 09 54.0 +14 25 27   0.02483 1.0065   158.5    20.9    18.6
2024 01 03    08 26 30.6 +09 23 31   0.02188 1.0029   153.5    26.0    18.5
...
2024 01 09    12 05 58.7 -43 37 59   0.01739 0.9826    86.8    92.2    20.0
...
2024 01 17    16 14 56.1 -50 37 04   0.04200 0.9582    51.5   126.5    24.0
...
2024 02 01    17 37 23.2 -44 47 00   0.09989 0.9233    49.3   126.0    25.7

M. P. C. Staff               (C) Copyright 2024 MPC           M.P.E.C. 2024-A11





More information about the Iaude mailing list